Tracking 28518 objects as of 2-Mar-2024
HD Live streaming from Space Station
objects crossing your sky now

STARLINK-31318

Track STARLINK-31318 now!
10-day predictions
STARLINK-31318 is classified as:


NORAD ID: 58885
Int'l Code: 2024-020K
Perigee: 487.9 km
Apogee: 489.8 km
Inclination: 53.2 °
Period: 94.2 minutes
Semi major axis: 6859 km
RCS: Unknown
Launch date: January 29, 2024
Source: United States (US)
Launch site: AIR FORCE WESTERN TEST RANGE (AFWTR)
Your satellite tracking list
Your tracking list is empty




NASA's NSSDC Master Catalog

Two Line Element Set (TLE):
1 58885U 24020K   24061.55581835  .00000522  00000-0  31523-4 0  9992
2 58885  53.1592 149.9795 0001383  83.8899 276.2258 15.28018743  5078
Source of the keplerian elements: AFSPC